Find Meteor

NORAD ID: 6659 Int'l Des: 1973-034 Owner: GUKOSR/GMS Country: SU operational
LEOCIRCULARPOLAR

Current View

Loading 3D Globe...

About Meteor

Description loading...

Upcoming Passes

Passes for default location (London). Set your location on the main map for personalized predictions.

Altitude History

Loading altitude history...

Two-Line Element Set

1 6659U 73034A 26149.44984789 -.00000028 00000-0 -22917-4 0 9995
2 6659 81.1884 264.4389 0027830 98.7968 261.6356 14.10543985724788
Epoch: May 29, 2026 • Age: 20 hours

Current Status

Altitude 896.6 km
Velocity 7.39 km/s
Sub-Earth Point -59.23°S, 111.01°E
Type other

Most Searched